Regional Weather Roundup
Issued by NWS

Home | Current Version | Previous Version | Graphics & Text | Print | Product List | Glossary On
Versions: 1 2 3 4 5 6 7 8 9 10 11 12 13 14 15 16 17 18 19 20 21 22 23 24 25 26 27 28 29 30 31 32 33 34 35 36 37 38 39 40 41 42 43 44 45 46 47 48 49 50
000
ASUS43 KMPX 212310
RWRMN
WEATHER ROUNDUP FOR MINNESOTA
NATIONAL WEATHER SERVICE TWIN CITIES/CHANHASSEN MN
600 PM CDT SAT OCT 21 2017


NOTE: "FAIR" INDICATES FEW OR NO CLOUDS BELOW 12,000 FEET WITH NO
SIGNIFICANT WEATHER AND/OR OBSTRUCTIONS TO VISIBILITY. N/A MEANS
CURRENT SKY AND/OR WEATHER CONDITIONS ARE NOT AVAILABLE.

MNZ060>063-068>070-220000-
   Twin Cities Metro

CITY           SKY/WX    TMP DP  RH WIND       PRES   REMARKS
TWIN CITIES    CLOUDY    69  61  75 S17G31    29.66S
ST PAUL        MOCLDY    68  61  78 S23G31    29.67R
CRYSTAL        CLOUDY    68  58  70 S16G23    29.64S
BLAINE         MOCLDY    70  63  78 S14       29.66R
LAKEVILLE      CLOUDY    66  61  82 S12G21    29.67S
EDEN PRAIRIE   CLOUDY    68  60  75 S16G29    29.63S
SOUTH ST PAUL  CLOUDY    69  60  73 S14G22    29.68R
LAKE ELMO      CLOUDY    68  61  77 S13       29.71R
$$
MNZ001>005-007-008-013>017-022>024-027-028-220000-
   Northwest Minnesota

CITY           SKY/WX    TMP DP  RH WIND       PRES   REMARKS
BEMIDJI        LGT RAIN  52  49  91 W7        29.56R
HALLOCK        CLOUDY    55  43  62 W13       29.52R
ROSEAU         CLOUDY    63  46  55 SW9       29.50R
WARROAD        CLOUDY    61  48  63 S6        29.51R
THIEF RVR FALL CLOUDY    54  43  66 W16       29.56R
CROOKSTON      MOCLDY    55  43  62 W17       29.57R
FOSSTON        CLOUDY    52  48  87 SW12      29.57R
DETROIT LAKES  CLOUDY    55  46  71 W12       29.62R
MOORHEAD       CLOUDY    55  43  62 W14       29.63R
PARK RAPIDS    CLOUDY    52  49  89 W7        29.60R
MAHNOMEN       CLOUDY    55  47  74 W15       29.59R
$$
MNZ006-009>011-018-025>026-220000-
   North Central Minnesota

CITY           SKY/WX    TMP DP  RH WIND       PRES   REMARKS
BAUDETTE       LGT RAIN  57  54  89 SW12G26   29.51R FOG
FLAG ISLAND    CLOUDY    54  54 100 S13       29.47S FOG
INTL FALLS     CLOUDY    62  58  86 S7        29.54F
WASKISH        DRIZZLE   54  54 100 SW12G17   29.54R
BIG FORK       LGT RAIN  63  61  94 SE8       29.55S
LONGVILLE      CLOUDY    64  61  88 S15G21    29.55S
GRAND RAPIDS   CLOUDY    61  60  97 S15G25    29.59S
CRANE LAKE     CLOUDY    59  57  94 SE5       29.61S FOG
ORR            CLOUDY    61  57  88 S10G16    29.56F
COOK           CLOUDY    61  59  94 S10G17    29.60S
WALKER         RAIN      53  48  86 W17G23    29.58R
$$
MNZ012-019>021-037-220000-
   Northeast Minnesota

CITY           SKY/WX    TMP DP  RH WIND       PRES   REMARKS
DULUTH         CLOUDY    61  60  97 S15G26    29.67R
ELY            CLOUDY    61  57  88 S14G21    29.63F
HIBBING        CLOUDY    60  59  96 S12G21    29.60F
EVELETH        CLOUDY    60  60 100 S13       29.63S
DULUTH HARBOR  CLOUDY    64  61  88 S16       29.66R
TWO HARBORS    CLOUDY    64  59  82 S7        29.66R
SILVER BAY     CLOUDY    59  59 100 CALM      29.67S
GRAND MARAIS     N/A     52  52 100 VRB5      29.71R
G MARAIS ARPRT CLOUDY    55  52  88 S9        29.73S FOG
$$
MNZ029>031-032-039>041-046>048-054>057-064-220000-
   West Central Minnesota

CITY           SKY/WX    TMP DP  RH WIND       PRES   REMARKS
FERGUS FALLS   CLOUDY    54  45  71 W12G21    29.67R
WHEATON        CLOUDY    54  39  58 W14G23    29.70R
MORRIS         PTCLDY    55  43  62 NW15      29.68R
ALEXANDRIA     CLOUDY    55  47  74 W13       29.67R
ELBOW LAKE     CLOUDY    54  44  69 NW13G18   29.68R
WADENA         CLOUDY    52  48  87 W6        29.61R
GLENWOOD       MOCLDY    54  48  82 W12       29.67R
APPLETON       CLOUDY    57  41  54 W15G22    29.70R
BENSON         CLOUDY    57  45  62 NW16      29.71R
ORTONVILLE     CLOUDY    54  43  66 W16       29.71R
MADISON        CLOUDY    57  43  58 W14G22    29.72R
WILLMAR        CLOUDY    57  50  77 W9        29.70R
$$
MNZ033>034-036-042>043-049>051-058-059-220000-
   Central Minnesota

CITY           SKY/WX    TMP DP  RH WIND       PRES   REMARKS
ST CLOUD       TSTM      56  56 100 W23G29    29.65R VSB 3/4
SAUK CENTRE    CLOUDY    54  48  81 W9        29.65R THUNDER
PAYNESVILLE    CLOUDY    55  50  85 W8        29.68R
AITKIN         CLOUDY    61  57  88 SE16G22   29.57S
PINE RIVER     LGT RAIN  55  52  88 W14G21    29.63R
BRAINERD       CLOUDY    65  60  84 S18G29    29.57S
STAPLES        LGT RAIN  52  50  93 W7        29.62R
LONG PRAIRIE   TSTM      52  46  82 SW10      29.64R
LITTLE FALLS   CLOUDY    54  46  76 W16G25    29.63R
LITCHFIELD     CLOUDY    55  54  94 W8        29.70R
BUFFALO        RAIN      66  60  79 S12G21    29.66R
MAPLE LAKE     RAIN      63  61  93 W15G22    29.67R
HUTCHINSON     CLOUDY    56  53  88 W10       29.71R
$$
MNZ037-044-045-052-053-220000-
   East Central Minnesota

CITY           SKY/WX    TMP DP  RH WIND       PRES   REMARKS
PRINCETON      CLOUDY    66  63  88 SE16      29.63S
MORA           CLOUDY    63  59  88 S7        29.66S
CAMBRIDGE      LGT RAIN  68  63  83 SE10G18   29.65R
RUSH CITY      CLOUDY    64  59  83 S10G17    29.68R
MOOSE LAKE     LGT RAIN  61  59  94 S8        29.64R
HINCKLEY       CLOUDY    64  61  88 S15G21    29.66R
CLOQUET        DRIZZLE   63  59  88 S10G17    29.66R
MCGREGOR       CLOUDY    63  61  94 S16       29.61S
$$
MNZ071>073-080-081-089-090-097-098-220000-
   Southwest Minnesota

CITY           SKY/WX    TMP DP  RH WIND       PRES   REMARKS
MONTEVIDEO     CLOUDY    57  43  58 NW16G23   29.71R
GRANITE FALLS  CLOUDY    57  46  67 W12G24    29.73R
CANBY          CLOUDY    55  42  61 NW14      29.74S
MARSHALL       CLOUDY    55  41  59 NW25G31   29.73R
REDWOOD FALLS  LGT RAIN  57  46  66 W13       29.72R
OLIVIA         LGT RAIN  55  50  82 W10       29.70R
PIPESTONE      CLOUDY    52  39  62 NW13      29.77R
WORTHINGTON    CLOUDY    54  43  66 W13       29.79R
JACKSON        RAIN      54  45  71 W14G21    29.77R
TRACY          CLOUDY    56  44  64 W13G21    29.75R
SLAYTON        CLOUDY    53  43  68 W13       29.77R
$$
MNZ065>067-074>077-082>085-091>093-220000-
   South Central Minnesota

CITY           SKY/WX    TMP DP  RH WIND       PRES   REMARKS
MANKATO        LGT RAIN  59  54  83 W21G31    29.71R
NEW ULM          N/A     57  50  77 W12G18    29.72R
ST JAMES       CLOUDY    57  48  72 W17       29.75R
FAIRMONT       CLOUDY    58  50  75 W14       29.75R
GLENCOE        LGT RAIN  57  57 100 W14G21    29.68R
FARIBAULT      CLOUDY    66  61  82 SE17G28   29.69R
OWATONNA       CLOUDY    66  61  82 S17G26    29.70S
WASECA         MOCLDY    64  59  82 S15G26    29.70S
$$
MNZ078>079-086>088-094>096-220000-
   Southeast Minnesota

CITY           SKY/WX    TMP DP  RH WIND       PRES   REMARKS
ROCHESTER      PTCLDY    66  59  78 S17       29.75F
RED WING       PTCLDY    70  55  60 S13G23    29.71R
STANTON        CLOUDY    68  60  74 S18G26    29.68R
DODGE CENTER   PTCLDY    66  57  72 S20       29.73R
WINONA         CLOUDY    70  59  68 S7        29.77F
AUSTIN         CLOUDY    66  59  77 S9        29.74R
PRESTON        CLOUDY    67  58  71 S14       29.77F
$$
ABBREVIATIONS USED IN REMARKS
   TC - TEMPERATURES IN CELSIUS
  WCI - WIND CHILL INDEX
   HX - HEAT INDEX
  VSB - VISIBILITY
$$




USA.gov is the U.S. government's official web portal to all federal, state and local government web resources and services.